COSMOS 1275 DEB, 17623

Orbit data source: Space-Track

COSMOS 1275 DEB, 17623 is space debris in LEO originally from a launch on Thu, 04 Jun 1981 UTC launched from the Plesetsk Missile And Space Complex (PKMTR). Debris objects in space refer to the collection of defunct objects orbiting the Earth. Examples of debris include non-operational satellites, rocket bodies, and fragments generated from explosions, collisions, or faulty payload assembly.

Loading next visibility...
Identifier
17623, 1981-053KS
Orbit
LEO
Country
Flag of CISCIS
Related business
Manufacturer
Unknown
Mission
Spacecraft
Bus & Motor
Unknown
Mass
Unknown
Launch date (UTC)
1981-06-04 (45 years ago)
Launch vehicle
Unknown
Launch site
Plesetsk Missile And Space Complex (PKMTR)
Object type
Payload
Rocket body
Debris
Shape & HBR
Unknown shape, 0.1 m
Radar Cross Section
Small (<0.1 m²)

Expand to show TLE details & history
Last TLE update: 1 day ago

TLE from 1 day ago
0 COSMOS 1275 DEB
1 17623U 81053KS  26103.94575791  .00001011  00000-0  69186-3 0  9991
2 17623  82.8004 278.3748 0054289 344.0236 168.8698 13.98120936 70467
Epoch: 2026-04-13T22:41Z
TLE epoch observation values (Epoch: 2026-04-13T22:41:53.483Z)
Latitude
26.79363°
Longitude
-87.86554°
Altitude
942.379 km
Speed
7.363 km/s
True Right ascension
06h 18m 56s
True Declination
26° 39' 32"
Sunlit
Object was in daylight at epoch
Visualization orbit readout
Latitude
Unknown
Longitude
Unknown
Altitude
Unknown
Speed
Unknown
Apparent Right ascension
Unknown
Apparent Declination
Unknown
Sunlit
N/A
Visualization observer readout
Local Sidereal Time
08:14:39
Azimuth
Unknown
Elevation
Unknown
Doppler factor
Unknown
Orbital elements
Apogee altitude
936.93 km
Perigee altitude
857.933 km
Semi-major axis
7,275.569 km
Eccentricity
0.00543
Inclination
82.8004°
RAAN
278.3748°
Arg. of periapsis
344.0236°
True anomaly
168.9891°
Mean anomaly
168.8698°
Eccentric anomaly
168.92953°
Mean motion
3.49738 °/min
Orbital period
102.93 mins
BSTAR
0.00069186
Loading maneuver chart data...
Computing Atmospheric mass density...

Documentation

Showing up to 5 results
|